Regional Weather Roundup
Issued by NWS Goodland, KS

Home | Current Version | Previous Version | Graphics & Text | Print | Product List | Glossary On
Versions: 1 2 3 4 5 6 7 8 9 10 11 12 13 14 15 16 17 18 19 20 21 22 23 24 25 26 27 28 29 30 31 32 33 34 35 36 37 38 39 40 41 42 43 44 45 46 47 48 49 50
000
ASUS43 KGLD 161559
RWRGLD

GOODLAND FORECAST AREA HOURLY WEATHER ROUNDUP
NATIONAL WEATHER SERVICE GOODLAND KS
1000 AM MDT WED AUG 16 2017

...OFFICIAL OBSERVATIONS...

CITY           SKY/WX    TMP DP  RH WIND       PRES   REMARKS
GOODLAND KS    CLOUDY    68  61  78 NW12      30.00S
HILL CITY KS   MOSUNNY   71  63  75 NW16      29.95R
IMPERIAL NEB   CLOUDY    67  59  75 NW15      29.99R
MCCOOK NEB     CLOUDY    69  62  78 W15       29.95R
AKRON CO       PTSUNNY   65  54  67 NW16      30.09R
BURLINGTON CO  CLOUDY    68  58  70 NW16      30.05R
LIMON CO       CLOUDY    63  53  70 NW15      30.13R
$$

...UNOFFICIAL OBSERVATIONS...

CITY           SKY/WX    TMP DP  RH WIND       PRES   REMARKS
LENORA KS        N/A     67  32  27 NW12        N/A
NORTON KS      PTSUNNY   68  57  68 NW12      29.93R
SHARON SPRINGS   N/A     67  61  80 NW9         N/A
TRENTON NEB      N/A     66  32  28 NW6         N/A
KIT CARSON CO    N/A     68  56  64 MISG        N/A
YUMA CO        FAIR      64  55  72 NW16      30.04S
$$




USA.gov is the U.S. government's official web portal to all federal, state and local government web resources and services.